Regional Weather Roundup
Issued by NWS Sterling, VA

Home | Current Version | Previous Version | Text Only | Print | Product List | Glossary Off
Versions: 1 2 3 4 5 6 7 8 9 10 11 12 13 14 15 16 17 18 19 20 21 22 23 24 25 26 27 28 29 30 31 32 33 34 35 36 37 38 39 40 41 42 43 44 45 46 47 48 49 50

264
ASUS41 KLWX 261510
RWRLWX

REGIONAL WEATHER ROUNDUP
NATIONAL WEATHER SERVICE BALTIMORE MD/WASHINGTON DC
1000 AM EST SUN FEB 26 2017

Note: "FAIR" indicates few or no clouds below 12,000 feet
with no significant weather and/or obstructions to visibility.
 TC=TEMPERATURE CELSIUS

 * =Non NWS site. Station does not report precipitation (e.g. rain,
    snow, etc.), thunder, or fog.

DCZ001-MDZ009-015-VAZ040>042-051-053>054-261600-
WASHINGTON METRO

CITY           SKY/WX    TMP DP  RH WIND       PRES   REMARKS
WASHINGTON NAT MOSUNNY   40  17  39 NW16G25   30.16R
DULLES         MOSUNNY   38  15  39 NW18G25   30.14R WCI  28
ANDREWS AFB    SUNNY     38  15  39 W14G23    30.13R
FT BELVOIR     SUNNY     40  15  37 W16G22    30.15R
QUANTICO       SUNNY     41  17  38 N13G28    30.17R
COLLEGE PARK*  SUNNY     37  16  41 NW13G22   30.15R
LEESBURG*      CLOUDY    41  23  48 MISG      30.15R
MANASSAS*      SUNNY     39  17  41 NW13G20   30.16R
GAITHERSBURG*  CLOUDY    37  14  38 NW15G30   30.16R WCI  28

$$

MDZ006>007-011-014-261600-
BALTIMORE METRO

CITY           SKY/WX    TMP DP  RH WIND       PRES   REMARKS
BWI AIRPORT    MOSUNNY   39  17  41 W16       30.13R
MD SCIENCE CTR   N/A     39  14  36 MISG      30.15R
MARTIN STATE   PTSUNNY   39  21  48 W16G24    30.13R
ANNAPOLIS      SUNNY     40  18  41 NW13G21   30.13R
FORT MEADE*    SUNNY     37  18  44 NW14G23   30.16R WCI  29

$$

MDZ012-015-019>023-261600-
MARYLAND EASTERN SHORE

CITY           SKY/WX    TMP DP  RH WIND       PRES   REMARKS
OCEAN CITY     SUNNY     42  23  46 NW13G23   30.09R
SALISBURY      SUNNY     41  24  51 W14G23    30.10R
BAY BRIDGE AP* SUNNY     39  19  45 NW14G20   30.14R
CAMBRIDGE*     SUNNY     39  18  41 NW13G23   30.14R
EASTON*        MOSUNNY   39  18  41 NW20G25   30.16R

$$

MDZ017>025-261600-
SOUTHERN MARYLAND

CITY           SKY/WX    TMP DP  RH WIND       PRES   REMARKS
PATUXENT RIVER MOSUNNY   40  20  44 NW20      30.14R
ST INIGOES     SUNNY     41  19  41 NW14G24   30.13R
LEONARDTOWN*   SUNNY     37  18  44 NW12G21   30.16R

$$

MDZ003>005-261600-
NORTH CENTRAL MARYLAND

CITY           SKY/WX    TMP DP  RH WIND       PRES   REMARKS
FREDERICK*     PTSUNNY   36  18  48 NW17      30.17R WCI  25
HAGERSTOWN APT CLOUDY    36  16  44 W16       30.11R WCI  26
WESTMINSTER*   CLOUDY    36  18  48 NW10G18   30.09R WCI  28

$$

MDZ501>502-261600-
WESTERN MARYLAND

CITY           SKY/WX    TMP DP  RH WIND       PRES   REMARKS
OAKLAND*       CLOUDY    23  14  68 W13G22    30.01R WCI  11
CUMBERLAND*    SUNNY     34  14  44 W18G29    30.16R WCI  23

$$

VAZ025>031-261600-
SHENANDOAH VALLEY

CITY           SKY/WX    TMP DP  RH WIND       PRES   REMARKS
WINCHESTER*    CLOUDY    34  18  51 W15G22    30.12R WCI  24
FRONT ROYAL*   MOSUNNY   36  18  48 W7        30.11S
LURAY*         CLOUDY    37  21  52 SW6       30.11S
NEW MARKET*    MOSUNNY   37  13  38 W7        30.10S
STAUNTON*      SUNNY     36  14  41 W3        30.13R
WAYNESBORO*    SUNNY     34  12  40 SW8G18    30.10S WCI  27

$$

WVZ021-048>050-054>055-261600-
EASTERN WEST VIRGINIA PANHANDLE

CITY           SKY/WX    TMP DP  RH WIND       PRES   REMARKS
MARTINSBURG    CLOUDY    35  15  44 W12G22    30.12R WCI  27
PETERSBURG*    MOSUNNY   37  17  44 W8        30.12S

$$

VAZ036>039-050-261600-
CENTRAL FOOTHILLS

CITY           SKY/WX    TMP DP  RH WIND       PRES   REMARKS
CHARLOTTESVILL SUNNY     40  17  39 VRB6      30.13R
CULPEPER*      SUNNY     40  18  40 W8        30.16R
ORANGE*        SUNNY     37  19  48 CALM      30.15S
GORDONSVILLE*  MOSUNNY   40  18  42 W3        30.14R
WARRENTON*     MOSUNNY   41  12  30 W12G17    30.14S

$$

VAZ055>057-261600-
NORTH AND CENTRAL PIEDMONT

CITY           SKY/WX    TMP DP  RH WIND       PRES   REMARKS
FREDERICKSBRG* SUNNY     40  20  44 N7        30.15R
STAFFORD*      SUNNY     39  20  45 NW10G16   30.19S

$$

NCZ024-NYZ072-PAZ021-071-VAZ022-071-261600-
OTHER REGIONAL OBSERVATIONS

CITY           SKY/WX    TMP DP  RH WIND       PRES   REMARKS
NEW YORK CITY  PTSUNNY   37  17  44 W14G24    30.00R WCI  28
PHILADELPHIA   PTSUNNY   38  14  37 W22G30    30.08R WCI  27
PITTSBURGH     FLURRIES  28  20  71 W13       30.13R WCI  17
ROANOKE        SUNNY     38  13  35 NW16      30.16R WCI  29
RICHMOND       SUNNY     43  20  39 NW9       30.15R
RALEIGH        SUNNY     44  15  31 VRB5      30.20R

$$

ANZ530>537-261600-
MARINE OBSERVATIONS

STATION/POSITION TIME  TEMP    WIND        PRES
                       AIR SEA DIR/SP/G
                 (UTC) (F)     (DEG/KT/KT) (MB)
THOMAS PT LIGHT  1500   36 44  310/ 19/ 22   N/A
BALT KEY BRIDGE  1448   36     290/ 20/ 23 1019.9R
COVE POINT       1448   37     340/ 14/ 23 1021.0R
LEWISETTA        1448   39 50  330/ 15/ 20 1020.7R
SOLOMONS ISLAND  1442   38 44  320/ 14/ 22   N/A
PINEY POINT      1448          340/ 18/ 21   N/A

$$





USA.gov is the U.S. government's official web portal to all federal, state and local government web resources and services.